{"data":{"norad_id":32768,"intl_designator":"2008-018B","name":"STAR ONE C2","alt_names":[],"object_type":"PAYLOAD","status":"ACTIVE","operator":null,"country":"BRAZ","launch_date":"2008-04-18","launch_site_code":"FRGUI","launch_vehicle":null,"mission":null,"orbit_class":"UNKNOWN","rcs_meters":10.7588,"size_class":null,"mass_kg":null,"dimensions":null,"purposes":["comms"],"wikipedia_slug":null,"has_3d_model":false,"image_url":null,"decayed_at":null,"tle_current":{"epoch":"2026-09-20T03:30:38.801952Z","epoch_age_seconds":45030,"freshness":"FRESH","line1":"1 32768U 08018B   26263.14628243 -.00000281  00000+0  00000+0 0  9992","line2":"2 32768   1.4757  81.3764 0002451  86.3703 178.9717  1.00273618 67607","mean_motion":1.00273618,"eccentricity":0.0002451,"inclination_deg":1.4757,"raan_deg":81.3764,"arg_perigee_deg":86.3703,"mean_anomaly_deg":178.9717,"bstar":0,"rev_number":6760,"period_min":1436.0706522029,"perigee_km":35775.746662719,"apogee_km":35796.415562438,"semimajor_km":42164.218112579,"source":"CELESTRAK","updated_at":"2026-09-20T09:00:35.132302Z"}}}